Regional Weather Roundup
Issued by NWS

Home | Current Version | Previous Version | Text Only | Print | Product List | Glossary On
Versions: 1 2 3 4 5 6 7 8 9 10 11 12 13 14 15 16 17 18 19 20 21 22 23 24 25 26 27 28 29 30 31 32 33 34 35 36 37 38 39 40 41 42 43 44 45 46 47 48 49 50
000
ASUS42 KKEY 121010
RWRKEY

FLORIDA REGIONAL WEATHER ROUNDUP FOR THE FLORIDA KEYS
NATIONAL WEATHER SERVICE KEY WEST FLORIDA
500 AM EST FRI FEB 12 2016

...SOUTH FLORIDA AND THE KEYS...

CITY           SKY/WX    TMP DP  RH WIND       PRES   REMARKS
FORT MYERS     CLEAR     48  46  93 CALM      30.27S
SW REGIONAL AP CLEAR     48  45  89 E5        30.27F
NAPLES         CLEAR     48  46  93 CALM      30.26S
MIAMI          CLEAR     56  46  69 N5        30.26R
WEST KENDALL   PTCLDY    52  47  83 CALM      30.26R
HOMESTEAD      PTCLDY    53  47  82 N6        30.24R
MARATHON       CLEAR     61  56  83 NE7       30.22S
BOCA CHICA NAS CLEAR     62  57  83 NE8       30.23R
KEY WEST INTL  CLEAR     61  59  93 NE7       30.23R

...INTERNATIONAL WEATHER...

CITY           SKY/WX    TMP DP  RH WIND       PRES   REMARKS
NASSAU BAHAMAS PTCLDY    54  46  76 CALM      30.24R
CANCUN MEXICO  PTCLDY    59  57  94 CALM      30.19R
COZUMEL MEXICO CLEAR     59  57  94 E3        30.18R

ADJACENT COASTAL WATERS...

STATION/POSITION TIME  SKY/WX   TEMP    WIND        PRES    WAVE
                                AIR SEA DIR/SP/G            HT/PER
                 (UTC)          (F)     (DEG/KT/KT) (MB)    (FT/S)
PULASKI SHOAL LI NOT AVBL
SAND KEY         0950            64      60/ 14/ 16 1023.6R
SOMBRERO KEY     NOT AVBL
LONG KEY         1000            61 63   30/ 12/ 13 1024.3R
MOLASSES REEF    1000            68 74   70/  9/ 10 1023.5R
FOWEY ROCKS      NOT AVBL

$$



USA.gov is the U.S. government's official web portal to all federal, state and local government web resources and services.